High Desert Yearling Classic - Mcgil Nv. 200 Miles

Station: McGil Nevada - A Race

Distance: 200 Miles    

Release: 19-May-2017 07:00

Weather Release: clear    Arrival: Mostly Clear

Wind at Release: NNW 3-5     Wind at Arrival: NW 7

Temp at Release: 27 Degr°    Temp at Arrival: 53 Degr°

Lofts: 79

Birds: 211

Clocked: 197

The wind has changed in Idaho from tail to head wind! Good Luck!
Drops Pos Breeder Pigeon Name Color Sex Ent Arrival Speed To Win Eligible
1 Ganus Family Loft - IN 0996-AU16-GFL BC C 1 11:09:22.00 1411.576 00:00:00 Yes
2 Jose Rangel - UT 0093-AU16-MIDW BB C 1 11:09:24.00 1411.387 00:00:02 Lost
3 Joe Zarachowicz - MD 1327-IF16-CCC BB C 1 11:09:26.00 1411.199 00:00:04 Yes
3 Hwy 51 Loft - OK 6050-AU16-NWA BB C 1 11:09:26.00 1411.199 00:00:04 Yes
5 Joe Zarachowicz - MD 1359-IF16-CCC BC H 2 11:09:28.00 1411.010 00:00:06 Lost
6 Kreager Loft - PA 42231-IF16-E BB H 1 11:09:34.00 1410.445 00:00:12 Yes
7 Scott/Carol Team - UT 0256-AU16-DWI BB H 1 11:09:36.00 1410.256 00:00:14 Yes
8 Silver Dollar Loft - CO 0072-AU16-SD IND H 1 11:09:40.00 1409.880 00:00:18 Yes
9 Racing Pigeon Mall - WA 0649-AU16-RPM BLK C 1 11:09:42.00 1409.692 00:00:20 Yes
10 Rory Smith - UT 6104-AU16-CDR BC C 1 11:09:48.00 1409.127 00:00:26 Yes
11 Western Loft - CA 1576-AU16-SFR BB H 1 11:09:59.00 1408.094 00:00:37 Lost
12 Ray Sackett - ID 1208-AU16-IDA BB C 1 11:10:01.00 1407.906 00:00:39 Yes
12 2nd Chance Loft - ID 55486-AU16-ARPU 22x43 BB C 1 11:10:01.00 1407.906 00:00:39 Lost
14 2nd Chance Loft - ID 55483-AU16-ARPU 64x25 BB H 2 11:10:05.00 1407.531 00:00:43 Yes
15 Bert Bruno - UT 24637-AU16-FOYS BB C 1 11:10:19.00 1406.219 00:00:57 Yes
15 Adirondack Team - NY 28360-AU16-AA BBWF H 1 11:10:19.00 1406.219 00:00:57 Lost
17 Joe Zarachowicz - MD 1373-IF16-CCC BB H 3 11:10:20.00 1406.125 00:00:58 Yes
18 Marty Hansen - CA 36644-AU16-AA BCPD H 1 11:10:30.00 1405.190 00:01:08 Yes
19 Hammon Racing & Dirty Birds - AZ 0062-AU16-DWI BB C 1 11:10:33.00 1404.909 00:01:11 Yes
- 1-DROP 11:10:32.00 1403.909
20 Sonny Loft - IL 1418-AU16-CHI Hot For Teacher BC H 1 11:12:32.00 1393.875 00:03:10 Yes
21 Lonkey Lofts - ID 3488-AU16-WII BB H 1 11:12:35.00 1393.599 00:03:13 Lost
22 Joe Zarachowicz - MD 1358-IF16-CCC DC H 4 11:12:38.00 1393.324 00:03:16 Yes
23 Nanez Family Lofts - WI 38346-AU16-JEDD BC C 1 11:12:43.00 1392.864 00:03:21 Yes
24 Western Loft - CA 0332-AU16-CHUI BB H 2 11:12:44.00 1392.772 00:03:22 Yes
25 Dave Dudley - CO 16145-AU16-PUEB BB C 1 11:12:45.00 1392.681 00:03:23 Lost
26 So & Ca Family Loft - NY 0445-IF16-BXC "MORNING SUN" BB H 1 11:12:49.00 1392.313 00:03:27 Yes
27 Lamonta - OR 1505-AU16-FOYS BBWF C 1 11:12:50.00 1392.221 00:03:28 Lost
28 Hotrocks Loft - UT 0555-AU16-WFA BBWF C 1 11:13:03.00 1391.029 00:03:41 Yes
29 Nanez Family Lofts - WI 38384-AU16-JEDD BB C 2 11:15:39.00 1376.882 00:06:17 Yes
30 Vaccaro Heavenly Loft - ON 10140-CU16-CRPU MY CHRISTINA BB H 1 11:17:51.00 1365.135 00:08:29 Lost
31 Bob Lehman - PA 0582-IF16-PGC BC C 1 11:18:05.00 1363.901 00:08:43 Lost
31 Silvercreek Loft - ON 1704-CU16-SC BBWF C 1 11:18:05.00 1363.901 00:08:43 Lost
33 Marty Hansen - CA 36641-AU16-AA SLT H 2 11:22:08.00 1342.828 00:12:46 Lost
34 Life Loft - WA 28287-AU16-JEDD Star Creator BB H 1 11:22:12.00 1342.487 00:12:50 Yes
35 Haack Loft - CA 3172-AU16-JEDD BB C 1 11:25:07.00 1327.717 00:15:45 Yes
36 Ed Kehl - UT 0305-AU16-WFA SLT C 1 11:25:23.00 1326.383 00:16:01 Yes
36 Stevens Family Loft Syndicate - UT 0757-AU16-DWI BB C 1 11:25:23.00 1326.383 00:16:01 Lost
38 Richard Callahan - MO 1400-AU16-AA BB C 1 11:25:33.00 1325.551 00:16:11 Lost
39 Richard Callahan - MO 43066-AU16-AA BC H 2 11:26:04.00 1322.977 00:16:42 Lost
40 Dave Naylor - BC 0274-CU16-PMTN BB C 1 11:26:17.00 1321.900 00:16:55 Yes
41 E M C Syndicate - LA 0665-AU16-EMC DC H 1 11:26:21.00 1321.569 00:16:59 Lost
42 Chen Loft - PA 0100-IF16-LU BB H 1 11:26:22.00 1321.487 00:17:00 Yes
43 F & D Lofts - AB 16192-AU16-FD BB C 1 11:26:32.00 1320.660 00:17:10 Lost
44 D & L Lofts - BC 16109-CU16-CU BC H 1 11:27:11.00 1317.447 00:17:49 Yes
45 Christensen & Stevens - UT 0751-AU16-DWI BB C 1 11:28:35.00 1310.580 00:19:13 Lost
46 Bert Bruno - UT 24636-AU16-FOYS BB C 2 11:29:25.00 1306.526 00:20:03 Lost
47 Mike Beam - KS 60742-AU16-TOP BB C 1 11:29:27.00 1306.365 00:20:05 Yes
48 El Dorado Lofts Canada - BC 16236-CU16-CRPU BC C 1 11:30:09.00 1302.980 00:20:47 Yes
49 Stella Loft - TX 48088-AU16-AA BC H 1 11:30:11.00 1302.819 00:20:49 Yes
50 Sonny Loft - IL 1419-AU16-CHI Charlottes Web BC H 2 11:30:17.00 1302.337 00:20:55 Yes
51 Bert Bruno - UT 0965-IF16-NWC BC H 3 11:30:21.00 1302.016 00:20:59 Lost
52 Chen Loft - PA 0458-AU16-TFC BC C 2 11:31:07.00 1298.334 00:21:45 Lost
53 Silver Dollar Loft - CO 0113-AU16-SD BCWF H 2 11:33:49.00 1285.532 00:24:27 Yes
54 Peter Truong - CA 16578-AU16-ARPU BB H 1 11:33:51.00 1285.375 00:24:29 Yes
55 Richard Callahan - MO 43068-AU16-AA BB H 3 11:33:52.00 1285.297 00:24:30 Yes
56 Ganus Family Loft - IN 0966-AU16-GFL BB H 2 11:33:55.00 1285.062 00:24:33 Yes
57 Mc Laughlin Lofts - MA 0545-AU16-MCLO DC H 1 11:33:56.00 1284.984 00:24:34 Yes
57 Donald Johnson - MA 0895-AU16-NB BB C 1 11:33:56.00 1284.984 00:24:34 Yes
59 Ganus Family Loft - IN 0975-AU16-GFL BB H 3 11:33:58.00 1284.828 00:24:36 Yes
60 Baldwin & Tilson - NC 6371-AU16-TENT BB H 1 11:33:59.00 1284.750 00:24:37 Yes
61 Scott/Carol Team - UT 0249-AU16-DWI BB H 2 11:34:00.00 1284.672 00:24:38 Yes
62 Scott/Carol Team - UT 0238-AU16-DWI BB C 3 11:34:03.00 1284.437 00:24:41 Lost
62 Silicon Valley Syndicate - CA 1728-AU16-WSJ BB C 1 11:34:03.00 1284.437 00:24:41 Yes
64 Chick Clayton - ID 0617-AU16-IDA BB C 1 11:34:07.00 1284.125 00:24:45 Lost
65 Silver Dollar Loft - CO 0112-AU16-SD BB H 3 11:34:10.00 1283.891 00:24:48 Yes
65 Danny Lum - HI 6861-AU16-HIC BC H 1 11:34:10.00 1283.891 00:24:48 Lost
67 Silver Dollar Loft - CO 0106-AU16-SD BC H 4 11:34:21.00 1283.033 00:24:59 Yes
68 Heritage Loft - UT 85356-AU16-ARPU BB H 1 11:34:25.00 1282.721 00:25:03 Yes
69 Mike Beam - KS 60769-AU16-TOP GRZ C 2 11:35:34.00 1277.368 00:26:12 Lost
70 Peter Truong - CA 16572-AU16-ARPU BBWF C 2 11:35:36.00 1277.213 00:26:14 Lost
71 Chen Loft - PA 0091-IF16-LU BC H 3 11:35:54.00 1275.825 00:26:32 Yes
72 Sam Haslem - UT 0099-AU16-SAM SLT H 1 11:37:12.00 1269.841 00:27:50 Yes
73 Steve Beier - AZ 0826-AU16-IDA BB C 1 11:37:13.00 1269.765 00:27:51 Lost
74 Mc Laughlin Lofts - MA 0544-AU16-MCLO BB C 2 11:37:21.00 1269.154 00:27:59 Yes
75 Rueter Family Loft - OR 6262-AU16-CORP BC C 1 11:39:01.00 1261.573 00:29:39 Yes
76 Dick & Marty Lee - ID 1599-AU16-IDA BB H 1 11:40:17.00 1255.872 00:30:55 Yes
76 Racing Pigeon Mall - WA 0645-AU16-RPM BLK H 2 11:40:17.00 1255.872 00:30:55 Yes
78 Rory Smith - UT 6152-AU16-CDR BB H 2 11:40:26.00 1255.200 00:31:04 Lost
79 Scott/Carol Team - UT 0250-AU16-DWI BB C 4 11:40:51.00 1253.338 00:31:29 Yes
80 Donald Johnson - MA 3549-AU16-FOYS BC C 2 11:41:28.00 1250.592 00:32:06 Yes
81 Sonny Loft - IL 1417-AU16-CHI The Wrench BB C 3 11:41:33.00 1250.222 00:32:11 Yes
82 Ganus Family Loft - IN 0983-AU16-GFL BC C 4 11:41:38.00 1249.852 00:32:16 Yes
82 Peter Truong - CA 16569-AU16-ARPU BB C 3 11:41:38.00 1249.852 00:32:16 Yes
84 Heritage Loft - UT 87772-AU16-ARPU BB H 2 11:41:57.00 1248.448 00:32:35 Yes
85 Twin Loft & Joe - MD 61581-IF16-BWI Hannah BB H 1 11:42:01.00 1248.153 00:32:39 Lost
86 Silver Dollar Loft - CO 0105-AU16-SD BBSP C 5 11:43:41.00 1240.820 00:34:19 Yes
87 Rangel/Flores/Fregos - UT 1761-AU16-WFA BC H 1 11:45:48.00 1231.631 00:36:26 Yes
88 Ed Kehl - UT 0985-AU16-WFA BBPD C 2 11:50:28.00 1211.843 00:41:06 Yes
89 Twin Loft & Joe - MD 60303-IF16-BWI Judith Alice BC H 2 11:50:44.00 1210.731 00:41:22 Yes
90 Bert Bruno - UT 24633-AU16-FOYS BC H 4 11:50:56.00 1209.899 00:41:34 Yes
91 Evolution Racing - UT 2595-AU16-OGN DC C 1 11:50:57.00 1209.830 00:41:35 Yes
92 Scott/Carol Team - UT 0254-AU16-DWI BC C 5 11:50:58.00 1209.761 00:41:36 Yes
93 Bob Lehman - PA 0985-IF16-PGC BCWF H 2 11:51:00.00 1209.622 00:41:38 Yes
94 Chen Loft - PA 0333-AU16-TFC BBWF C 4 11:51:01.00 1209.553 00:41:39 Lost
94 Danny Lum - HI 8612-AU16-FSC BCWF C 2 11:51:01.00 1209.553 00:41:39 Lost
94 Frank Locante - WI 16040-AU16-FRLO BC H 1 11:51:01.00 1209.553 00:41:39 Yes
94 Danny Lum - HI 6759-AU16-HIC BB H 3 11:51:01.00 1209.553 00:41:39 Yes
98 Dave Dudley - CO 16159-AU16-PUEB BB C 2 11:51:03.00 1209.414 00:41:41 Yes
98 Racing Pigeon Mall - WA 0646-AU16-RPM BC C 3 11:51:03.00 1209.414 00:41:41 Lost

There are 665 bird records

Note: These Race Results are unofficial and subject to change until verified by the Race Committee and declared final.

Click for forecast!